OAL337 LGAV-LYPG

Flight info

Callsign OAL337
Flight time 1h 37m
Altitude 18000
Route ROPOX UM749 SKP UL617 TSL UN130 TALAS DCT MAVAR DCT RINAV DCT RETRA
Aircraft AT46/M-SDFGIRY/S

Departure

Time 2026-05-05 19:54
Airport Athens Eleftherios Venizelos International Airport (LGAV)

Arrival

Time 2026-05-05 21:31
Airport Podgorica Airport / Podgorica Golubovci Airbase (LYPG)
Time Latitude Longitude Altitude Speed Heading
2026-05-05 19:39 37.94266 23.95534 298 ft 0 kts 37°
2026-05-05 19:45 37.94267 23.95534 298 ft 1 kts 37°
2026-05-05 19:45 37.94286 23.95554 298 ft 1 kts 58°
2026-05-05 19:45 37.94275 23.95593 298 ft 12 kts 123°
2026-05-05 19:46 37.94206 23.95667 296 ft 4 kts 209°
2026-05-05 19:46 37.94135 23.95605 297 ft 17 kts 193°
2026-05-05 19:46 37.94032 23.95641 293 ft 18 kts 206°
2026-05-05 19:46 37.93946 23.95562 293 ft 15 kts 217°
2026-05-05 19:47 37.93861 23.95480 295 ft 19 kts 219°
2026-05-05 19:47 37.93757 23.95382 295 ft 15 kts 216°
2026-05-05 19:47 37.93678 23.95308 296 ft 14 kts 215°
2026-05-05 19:47 37.93603 23.95237 294 ft 13 kts 217°
2026-05-05 19:48 37.93530 23.95167 295 ft 13 kts 218°
2026-05-05 19:48 37.93465 23.95105 298 ft 12 kts 218°
2026-05-05 19:48 37.93398 23.95041 296 ft 12 kts 217°
2026-05-05 19:48 37.93330 23.94976 295 ft 12 kts 217°
2026-05-05 19:49 37.93262 23.94913 297 ft 12 kts 216°
2026-05-05 19:49 37.93219 23.94872 296 ft 12 kts 218°
2026-05-05 19:49 37.93130 23.94787 298 ft 12 kts 217°
2026-05-05 19:49 37.93062 23.94722 298 ft 12 kts 217°
2026-05-05 19:50 37.92994 23.94659 299 ft 12 kts 216°
2026-05-05 19:50 37.92925 23.94593 298 ft 12 kts 217°
2026-05-05 19:50 37.92861 23.94533 300 ft 11 kts 217°
2026-05-05 19:50 37.92819 23.94493 300 ft 12 kts 216°
2026-05-05 19:51 37.92752 23.94431 300 ft 12 kts 217°
2026-05-05 19:51 37.92685 23.94366 299 ft 12 kts 218°
2026-05-05 19:51 37.92619 23.94303 303 ft 11 kts 216°
2026-05-05 19:51 37.92551 23.94302 301 ft 10 kts 132°
2026-05-05 19:52 37.92529 23.94338 304 ft 0 kts 126°
2026-05-05 19:52 37.92527 23.94341 302 ft 5 kts 126°
2026-05-05 19:52 37.92492 23.94407 305 ft 9 kts 109°
2026-05-05 19:53 37.92510 23.94476 304 ft 9 kts 44°
2026-05-05 19:53 37.92518 23.94483 304 ft 0 kts 36°
2026-05-05 19:53 37.92525 23.94489 305 ft 13 kts 36°
2026-05-05 19:53 37.92779 23.94731 299 ft 77 kts 37°
2026-05-05 19:54 37.93394 23.95312 322 ft 139 kts 34°
2026-05-05 19:54 37.94225 23.96042 848 ft 146 kts 32°
2026-05-05 19:54 37.95191 23.96584 1425 ft 158 kts 12°
2026-05-05 19:54 37.96303 23.96629 2091 ft 162 kts 352°
2026-05-05 19:55 37.97432 23.96376 2740 ft 167 kts 346°
2026-05-05 19:55 37.98482 23.95727 3428 ft 164 kts 317°
2026-05-05 19:55 37.99296 23.94796 4020 ft 158 kts 323°
2026-05-05 19:55 38.00252 23.93960 4219 ft 180 kts 329°
2026-05-05 19:56 38.01409 23.93096 4270 ft 204 kts 332°
2026-05-05 19:56 38.02725 23.92276 4328 ft 222 kts 337°
2026-05-05 19:56 38.04184 23.91579 4600 ft 224 kts 342°
2026-05-05 19:56 38.05576 23.91092 4916 ft 225 kts 347°
2026-05-05 19:57 38.07118 23.90687 5212 ft 226 kts 349°
2026-05-05 19:57 38.08145 23.90444 5485 ft 225 kts 349°
2026-05-05 19:57 38.10193 23.89967 5776 ft 227 kts 350°
2026-05-05 19:57 38.11748 23.89597 5936 ft 227 kts 349°
2026-05-05 19:58 38.13297 23.89204 6102 ft 227 kts 349°
2026-05-05 19:58 38.14847 23.88802 6260 ft 227 kts 349°
2026-05-05 19:58 38.16405 23.88399 6415 ft 228 kts 349°
2026-05-05 19:58 38.17962 23.87997 6566 ft 228 kts 349°
2026-05-05 19:59 38.19522 23.87592 6686 ft 229 kts 349°
2026-05-05 19:59 38.21062 23.87193 6820 ft 229 kts 349°
2026-05-05 19:59 38.22627 23.86782 6947 ft 229 kts 349°
2026-05-05 19:59 38.24178 23.86379 7144 ft 226 kts 349°
2026-05-05 20:00 38.25718 23.85980 7341 ft 225 kts 349°
2026-05-05 20:00 38.27246 23.85580 7537 ft 223 kts 349°
2026-05-05 20:00 38.28762 23.85183 7739 ft 222 kts 349°
2026-05-05 20:00 38.30279 23.84789 7953 ft 221 kts 349°
2026-05-05 20:01 38.31768 23.84404 8144 ft 221 kts 349°
2026-05-05 20:01 38.33278 23.84008 8340 ft 220 kts 349°
2026-05-05 20:01 38.34779 23.83617 8529 ft 220 kts 349°
2026-05-05 20:01 38.36278 23.83227 8747 ft 219 kts 349°
2026-05-05 20:02 38.37770 23.82839 8954 ft 219 kts 349°
2026-05-05 20:02 38.38758 23.82579 9085 ft 218 kts 349°
2026-05-05 20:02 38.40247 23.82190 9295 ft 218 kts 349°
2026-05-05 20:02 38.42216 23.81676 9562 ft 217 kts 349°
2026-05-05 20:03 38.43194 23.81420 9695 ft 216 kts 349°
2026-05-05 20:03 38.44665 23.81034 9876 ft 215 kts 349°
2026-05-05 20:03 38.46136 23.80649 10061 ft 216 kts 349°
2026-05-05 20:03 38.47635 23.80258 10234 ft 217 kts 349°
2026-05-05 20:04 38.49104 23.79873 10401 ft 218 kts 349°
2026-05-05 20:04 38.50595 23.79481 10563 ft 219 kts 349°
2026-05-05 20:04 38.52089 23.79090 10735 ft 219 kts 349°
2026-05-05 20:04 38.53581 23.78700 10897 ft 219 kts 349°
2026-05-05 20:05 38.55075 23.78307 11069 ft 219 kts 349°
2026-05-05 20:05 38.56566 23.77917 11243 ft 219 kts 349°
2026-05-05 20:05 38.58040 23.77528 11414 ft 218 kts 349°
2026-05-05 20:05 38.59534 23.77135 11586 ft 219 kts 349°
2026-05-05 20:06 38.61025 23.76745 11762 ft 219 kts 349°
2026-05-05 20:06 38.62517 23.76352 11938 ft 218 kts 349°
2026-05-05 20:06 38.64003 23.75963 12106 ft 217 kts 349°
2026-05-05 20:06 38.65485 23.75571 12284 ft 217 kts 349°
2026-05-05 20:07 38.66961 23.75182 12468 ft 216 kts 349°
2026-05-05 20:07 38.68417 23.74799 12653 ft 217 kts 349°
2026-05-05 20:07 38.69879 23.74413 12846 ft 217 kts 349°
2026-05-05 20:07 38.71363 23.74020 13013 ft 218 kts 348°
2026-05-05 20:08 38.72848 23.73628 13200 ft 218 kts 349°
2026-05-05 20:08 38.74333 23.73239 13388 ft 218 kts 349°
2026-05-05 20:08 38.75818 23.72847 13569 ft 218 kts 349°
2026-05-05 20:08 38.77302 23.72456 13746 ft 217 kts 349°
2026-05-05 20:09 38.78781 23.72065 13928 ft 216 kts 349°
2026-05-05 20:09 38.80235 23.71682 14086 ft 216 kts 349°
2026-05-05 20:09 38.81705 23.71291 14253 ft 215 kts 349°
2026-05-05 20:09 38.83169 23.70905 14417 ft 214 kts 349°
2026-05-05 20:10 38.84629 23.70519 14582 ft 213 kts 348°
2026-05-05 20:10 38.86082 23.70135 14744 ft 212 kts 348°
2026-05-05 20:10 38.87510 23.69758 14912 ft 212 kts 348°
2026-05-05 20:10 38.88952 23.69375 15082 ft 211 kts 348°
2026-05-05 20:11 38.90385 23.68996 15252 ft 210 kts 348°
2026-05-05 20:11 38.91813 23.68617 15421 ft 209 kts 348°
2026-05-05 20:11 38.93234 23.68239 15590 ft 208 kts 348°
2026-05-05 20:11 38.94650 23.67865 15760 ft 207 kts 348°
2026-05-05 20:12 38.96059 23.67490 15935 ft 206 kts 348°
2026-05-05 20:12 38.97451 23.67122 16107 ft 205 kts 348°
2026-05-05 20:12 38.98850 23.66751 16283 ft 204 kts 348°
2026-05-05 20:12 39.00241 23.66381 16458 ft 204 kts 348°
2026-05-05 20:13 39.01625 23.66013 16634 ft 203 kts 348°
2026-05-05 20:13 39.03003 23.65646 16810 ft 201 kts 348°
2026-05-05 20:13 39.04373 23.65281 16995 ft 200 kts 347°
2026-05-05 20:13 39.05734 23.64920 17172 ft 199 kts 347°
2026-05-05 20:14 39.07092 23.64559 17357 ft 198 kts 347°
2026-05-05 20:14 39.08444 23.64200 17540 ft 197 kts 347°
2026-05-05 20:14 39.09771 23.63847 17723 ft 196 kts 347°
2026-05-05 20:14 39.11111 23.63488 17849 ft 198 kts 347°
2026-05-05 20:15 39.12478 23.63125 17903 ft 202 kts 347°
2026-05-05 20:15 39.13875 23.62752 17925 ft 207 kts 347°
2026-05-05 20:15 39.15304 23.62371 17938 ft 211 kts 347°
2026-05-05 20:15 39.16762 23.61985 17939 ft 215 kts 347°
2026-05-05 20:16 39.18234 23.61594 17938 ft 217 kts 347°
2026-05-05 20:16 39.19661 23.61016 17953 ft 219 kts 338°
2026-05-05 20:16 39.21074 23.60255 17953 ft 221 kts 337°
2026-05-05 20:16 39.22506 23.59476 17942 ft 223 kts 338°
2026-05-05 20:17 39.23953 23.58731 17942 ft 225 kts 339°
2026-05-05 20:17 39.25424 23.58017 17944 ft 226 kts 339°
2026-05-05 20:17 39.26902 23.57306 17945 ft 227 kts 340°
2026-05-05 20:17 39.28391 23.56590 17946 ft 228 kts 339°
2026-05-05 20:18 39.29884 23.55872 17947 ft 229 kts 340°
2026-05-05 20:18 39.31360 23.55160 17947 ft 229 kts 339°
2026-05-05 20:18 39.32857 23.54432 17950 ft 230 kts 339°
2026-05-05 20:18 39.34354 23.53708 17949 ft 230 kts 339°
2026-05-05 20:19 39.35858 23.52979 17950 ft 231 kts 339°
2026-05-05 20:19 39.37364 23.52249 17949 ft 231 kts 339°
2026-05-05 20:19 39.38869 23.51519 17949 ft 231 kts 340°
2026-05-05 20:19 39.40376 23.50791 17954 ft 231 kts 339°
2026-05-05 20:20 39.41886 23.50053 17952 ft 232 kts 339°
2026-05-05 20:20 39.43400 23.49324 17951 ft 232 kts 340°
2026-05-05 20:20 39.44894 23.48605 17949 ft 232 kts 339°
2026-05-05 20:20 39.46410 23.47870 17952 ft 232 kts 339°
2026-05-05 20:21 39.47925 23.47138 17954 ft 232 kts 339°
2026-05-05 20:21 39.49440 23.46402 17956 ft 232 kts 339°
2026-05-05 20:21 39.50964 23.45667 17958 ft 233 kts 340°
2026-05-05 20:21 39.52459 23.44942 17955 ft 233 kts 339°
2026-05-05 20:22 39.53980 23.44204 17955 ft 233 kts 340°
2026-05-05 20:22 39.55498 23.43467 17954 ft 233 kts 340°
2026-05-05 20:22 39.57020 23.42727 17954 ft 233 kts 340°
2026-05-05 20:22 39.58544 23.41989 17957 ft 233 kts 340°
2026-05-05 20:23 39.60065 23.41249 17958 ft 233 kts 339°
2026-05-05 20:23 39.61589 23.40507 17957 ft 234 kts 339°
2026-05-05 20:23 39.63093 23.39777 17958 ft 234 kts 340°
2026-05-05 20:23 39.64618 23.39036 17958 ft 234 kts 340°
2026-05-05 20:24 39.66144 23.38292 17958 ft 234 kts 340°
2026-05-05 20:24 39.67674 23.37547 17955 ft 234 kts 339°
2026-05-05 20:24 39.69198 23.36804 17957 ft 234 kts 340°
2026-05-05 20:24 39.70729 23.36059 17957 ft 234 kts 339°
2026-05-05 20:25 39.72240 23.35319 17957 ft 234 kts 339°
2026-05-05 20:25 39.73769 23.34564 17954 ft 234 kts 339°
2026-05-05 20:25 39.75299 23.33825 17959 ft 235 kts 340°
2026-05-05 20:25 39.76833 23.33081 17952 ft 235 kts 340°
2026-05-05 20:26 39.78368 23.32329 17954 ft 235 kts 339°
2026-05-05 20:26 39.79901 23.31578 17957 ft 235 kts 340°
2026-05-05 20:26 39.81413 23.30838 17958 ft 235 kts 339°
2026-05-05 20:26 39.82945 23.30087 17953 ft 235 kts 339°
2026-05-05 20:27 39.84485 23.29333 17954 ft 235 kts 339°
2026-05-05 20:27 39.86022 23.28579 17957 ft 235 kts 339°
2026-05-05 20:27 39.87562 23.27824 17957 ft 236 kts 339°
2026-05-05 20:27 39.89082 23.27077 17959 ft 236 kts 339°
2026-05-05 20:28 39.90619 23.26318 17955 ft 236 kts 339°
2026-05-05 20:28 39.92155 23.25558 17959 ft 236 kts 340°
2026-05-05 20:28 39.93699 23.24811 17955 ft 236 kts 339°
2026-05-05 20:28 39.95237 23.24058 17958 ft 236 kts 339°
2026-05-05 20:29 39.96774 23.23300 17958 ft 236 kts 339°
2026-05-05 20:29 39.98294 23.22551 17955 ft 236 kts 339°
2026-05-05 20:29 39.99836 23.21794 17955 ft 237 kts 339°
2026-05-05 20:29 40.01379 23.21034 17956 ft 237 kts 339°
2026-05-05 20:30 40.02922 23.20272 17953 ft 237 kts 339°
2026-05-05 20:30 40.04470 23.19509 17952 ft 237 kts 339°
2026-05-05 20:30 40.06013 23.18750 17954 ft 237 kts 339°
2026-05-05 20:30 40.07559 23.17988 17952 ft 237 kts 339°
2026-05-05 20:31 40.09101 23.17224 17952 ft 237 kts 339°
2026-05-05 20:31 40.10630 23.16465 17952 ft 237 kts 339°
2026-05-05 20:31 40.12174 23.15695 17955 ft 237 kts 339°
2026-05-05 20:31 40.13723 23.14941 17950 ft 237 kts 339°
2026-05-05 20:32 40.15271 23.14180 17952 ft 237 kts 339°
2026-05-05 20:32 40.16798 23.13424 17950 ft 238 kts 339°
2026-05-05 20:32 40.18347 23.12654 17952 ft 238 kts 339°
2026-05-05 20:32 40.19895 23.11888 17947 ft 238 kts 339°
2026-05-05 20:33 40.21445 23.11119 17950 ft 238 kts 339°
2026-05-05 20:33 40.22994 23.10351 17947 ft 238 kts 339°
2026-05-05 20:33 40.24543 23.09582 17946 ft 238 kts 339°
2026-05-05 20:33 40.26092 23.08815 17946 ft 238 kts 339°
2026-05-05 20:34 40.27642 23.08044 17944 ft 238 kts 339°
2026-05-05 20:34 40.29175 23.07285 17943 ft 238 kts 339°
2026-05-05 20:34 40.30726 23.06513 17945 ft 238 kts 339°
2026-05-05 20:34 40.32285 23.05737 17945 ft 238 kts 339°
2026-05-05 20:35 40.33839 23.04965 17947 ft 239 kts 339°
2026-05-05 20:35 40.35394 23.04191 17943 ft 239 kts 339°
2026-05-05 20:35 40.36949 23.03416 17943 ft 239 kts 339°
2026-05-05 20:35 40.38485 23.02650 17943 ft 239 kts 339°
2026-05-05 20:36 40.40045 23.01875 17944 ft 239 kts 339°
2026-05-05 20:36 40.41602 23.01098 17944 ft 239 kts 339°
2026-05-05 20:36 40.43164 23.00317 17943 ft 240 kts 339°
2026-05-05 20:36 40.44723 22.99535 17946 ft 240 kts 339°
2026-05-05 20:37 40.46160 22.98520 17948 ft 238 kts 318°
2026-05-05 20:37 40.46891 22.97410 17950 ft 239 kts 309°
2026-05-05 20:37 40.48175 22.95048 17946 ft 240 kts 307°
2026-05-05 20:37 40.49132 22.93247 17946 ft 241 kts 308°
2026-05-05 20:38 40.50121 22.91467 17947 ft 241 kts 309°
2026-05-05 20:38 40.51145 22.89711 17944 ft 242 kts 310°
2026-05-05 20:38 40.52173 22.87955 17942 ft 242 kts 309°
2026-05-05 20:38 40.53202 22.86196 17942 ft 242 kts 309°
2026-05-05 20:39 40.54231 22.84434 17944 ft 243 kts 309°
2026-05-05 20:39 40.55263 22.82668 17942 ft 243 kts 309°
2026-05-05 20:39 40.56280 22.80925 17940 ft 243 kts 309°
2026-05-05 20:39 40.57311 22.79159 17942 ft 243 kts 309°
2026-05-05 20:40 40.58343 22.77389 17941 ft 243 kts 309°
2026-05-05 20:40 40.59375 22.75620 17943 ft 243 kts 309°
2026-05-05 20:40 40.60405 22.73850 17941 ft 243 kts 309°
2026-05-05 20:40 40.61423 22.72099 17938 ft 243 kts 309°
2026-05-05 20:41 40.62453 22.70329 17936 ft 243 kts 309°
2026-05-05 20:41 40.63482 22.68557 17941 ft 244 kts 309°
2026-05-05 20:41 40.64513 22.66787 17938 ft 244 kts 309°
2026-05-05 20:41 40.65544 22.65013 17934 ft 244 kts 309°
2026-05-05 20:42 40.66572 22.63238 17935 ft 244 kts 309°
2026-05-05 20:42 40.67604 22.61459 17936 ft 244 kts 309°
2026-05-05 20:42 40.68632 22.59685 17934 ft 244 kts 309°
2026-05-05 20:42 40.69663 22.57906 17941 ft 244 kts 309°
2026-05-05 20:43 40.70680 22.56149 17937 ft 244 kts 309°
2026-05-05 20:43 40.71710 22.54368 17934 ft 244 kts 308°
2026-05-05 20:43 40.72741 22.52586 17938 ft 244 kts 308°
2026-05-05 20:43 40.73772 22.50804 17939 ft 244 kts 309°
2026-05-05 20:44 40.74791 22.49044 17938 ft 244 kts 308°
2026-05-05 20:44 40.75832 22.47240 17936 ft 244 kts 308°
2026-05-05 20:44 40.76843 22.45480 17940 ft 244 kts 308°
2026-05-05 20:44 40.77867 22.43695 17939 ft 244 kts 309°
2026-05-05 20:45 40.79931 22.40135 17941 ft 244 kts 308°
2026-05-05 20:45 40.80959 22.38347 17943 ft 244 kts 308°
2026-05-05 20:45 40.81985 22.36562 17938 ft 244 kts 308°
2026-05-05 20:46 40.83013 22.34778 17940 ft 244 kts 308°
2026-05-05 20:46 40.84027 22.33008 17944 ft 244 kts 308°
2026-05-05 20:46 40.85057 22.31214 17943 ft 244 kts 308°
2026-05-05 20:46 40.86084 22.29423 17945 ft 244 kts 308°
2026-05-05 20:47 40.87109 22.27638 17949 ft 244 kts 308°
2026-05-05 20:47 40.88134 22.25849 17949 ft 244 kts 308°
2026-05-05 20:47 40.89145 22.24084 17951 ft 244 kts 308°
2026-05-05 20:47 40.89837 22.22879 17947 ft 244 kts 308°
2026-05-05 20:48 40.91192 22.20511 17952 ft 244 kts 308°
2026-05-05 20:48 40.92218 22.18718 17952 ft 244 kts 308°
2026-05-05 20:48 40.93243 22.16929 17958 ft 244 kts 308°
2026-05-05 20:48 40.93934 22.15720 17963 ft 244 kts 308°
2026-05-05 20:49 40.94945 22.13952 17961 ft 244 kts 308°
2026-05-05 20:49 40.95971 22.12156 17957 ft 245 kts 308°
2026-05-05 20:49 40.96996 22.10359 17956 ft 245 kts 308°
2026-05-05 20:49 40.98024 22.08558 17959 ft 244 kts 308°
2026-05-05 20:50 40.99048 22.06760 17961 ft 244 kts 308°
2026-05-05 20:50 41.00076 22.04955 17961 ft 244 kts 308°
2026-05-05 20:50 41.01100 22.03157 17964 ft 244 kts 307°
2026-05-05 20:50 41.02110 22.01380 17963 ft 244 kts 307°
2026-05-05 20:51 41.03133 21.99582 17966 ft 244 kts 308°
2026-05-05 20:51 41.04156 21.97782 17964 ft 244 kts 308°
2026-05-05 20:51 41.05176 21.95987 17967 ft 243 kts 307°
2026-05-05 20:51 41.06196 21.94191 17975 ft 243 kts 307°
2026-05-05 20:52 41.07216 21.92390 17965 ft 244 kts 307°
2026-05-05 20:52 41.08196 21.90588 17960 ft 244 kts 304°
2026-05-05 20:52 41.09066 21.88660 17975 ft 244 kts 300°
2026-05-05 20:52 41.09887 21.86690 17971 ft 244 kts 300°
2026-05-05 20:53 41.10704 21.84711 17971 ft 245 kts 300°
2026-05-05 20:53 41.11539 21.82731 17964 ft 245 kts 301°
2026-05-05 20:53 41.12391 21.80773 17970 ft 245 kts 301°
2026-05-05 20:53 41.13243 21.78818 17972 ft 245 kts 301°
2026-05-05 20:54 41.14096 21.76861 17973 ft 245 kts 301°
2026-05-05 20:54 41.14951 21.74899 17974 ft 245 kts 301°
2026-05-05 20:54 41.15793 21.72963 17978 ft 245 kts 301°
2026-05-05 20:54 41.16648 21.70999 17968 ft 246 kts 301°
2026-05-05 20:55 41.17502 21.69034 17971 ft 246 kts 301°
2026-05-05 20:55 41.18360 21.67062 17971 ft 246 kts 301°
2026-05-05 20:55 41.19215 21.65090 17971 ft 245 kts 301°
2026-05-05 20:55 41.20056 21.63152 17964 ft 245 kts 301°
2026-05-05 20:56 41.20908 21.61187 17976 ft 244 kts 300°
2026-05-05 20:56 41.21758 21.59226 17978 ft 245 kts 300°
2026-05-05 20:56 41.22610 21.57258 17973 ft 245 kts 300°
2026-05-05 20:56 41.23462 21.55292 17979 ft 246 kts 300°
2026-05-05 20:57 41.24315 21.53318 17974 ft 246 kts 300°
2026-05-05 20:57 41.25164 21.51351 17975 ft 246 kts 300°
2026-05-05 20:57 41.26016 21.49381 17980 ft 246 kts 300°
2026-05-05 20:57 41.26855 21.47434 17976 ft 246 kts 300°
2026-05-05 20:58 41.27705 21.45465 17975 ft 246 kts 300°
2026-05-05 20:58 41.28554 21.43491 17974 ft 245 kts 300°
2026-05-05 20:58 41.29401 21.41523 17981 ft 245 kts 300°
2026-05-05 20:58 41.30251 21.39547 17980 ft 245 kts 300°
2026-05-05 20:59 41.31100 21.37575 17976 ft 245 kts 300°
2026-05-05 20:59 41.31947 21.35608 17981 ft 245 kts 300°
2026-05-05 20:59 41.32782 21.33664 17981 ft 245 kts 300°
2026-05-05 20:59 41.33627 21.31698 17984 ft 245 kts 300°
2026-05-05 21:00 41.34471 21.29732 17985 ft 245 kts 300°
2026-05-05 21:00 41.35318 21.27757 17983 ft 244 kts 300°
2026-05-05 21:00 41.36159 21.25796 17986 ft 244 kts 299°
2026-05-05 21:00 41.37001 21.23833 17990 ft 244 kts 299°
2026-05-05 21:01 41.37846 21.21862 17993 ft 244 kts 299°
2026-05-05 21:01 41.38117 21.21226 17990 ft 244 kts 299°
2026-05-05 21:03 41.44502 21.06254 18004 ft 243 kts 298°
2026-05-05 21:03 41.45328 21.04314 18005 ft 244 kts 298°
2026-05-05 21:03 41.46164 21.02346 17997 ft 244 kts 298°
2026-05-05 21:03 41.47003 21.00373 17999 ft 244 kts 298°
2026-05-05 21:04 41.47839 20.98405 18002 ft 244 kts 298°
2026-05-05 21:04 41.48675 20.96436 18000 ft 244 kts 298°
2026-05-05 21:04 41.49510 20.94468 18002 ft 244 kts 298°
2026-05-05 21:04 41.50345 20.92496 17989 ft 243 kts 298°
2026-05-05 21:05 41.51167 20.90553 18002 ft 242 kts 298°
2026-05-05 21:05 41.51998 20.88589 18014 ft 243 kts 298°
2026-05-05 21:05 41.52831 20.86622 18009 ft 244 kts 298°
2026-05-05 21:05 41.53669 20.84642 18008 ft 244 kts 298°
2026-05-05 21:06 41.54494 20.82691 18006 ft 244 kts 298°
2026-05-05 21:06 41.55330 20.80708 18013 ft 244 kts 298°
2026-05-05 21:06 41.56168 20.78717 17826 ft 252 kts 298°
2026-05-05 21:06 41.57057 20.76609 17464 ft 263 kts 298°
2026-05-05 21:07 41.57941 20.74508 17467 ft 260 kts 298°
2026-05-05 21:07 41.58824 20.72413 17469 ft 257 kts 298°
2026-05-05 21:07 41.59699 20.70328 17459 ft 255 kts 298°
2026-05-05 21:07 41.60567 20.68269 17468 ft 254 kts 298°
2026-05-05 21:08 41.61428 20.66213 17460 ft 252 kts 298°
2026-05-05 21:08 41.62287 20.64173 17469 ft 251 kts 298°
2026-05-05 21:08 41.63141 20.62135 17473 ft 251 kts 298°
2026-05-05 21:08 41.64009 20.60144 17480 ft 251 kts 301°
2026-05-05 21:09 41.64956 20.58185 17462 ft 251 kts 302°
2026-05-05 21:09 41.65916 20.56238 17461 ft 250 kts 302°
2026-05-05 21:09 41.66863 20.54295 17470 ft 249 kts 301°
2026-05-05 21:09 41.67798 20.52340 17468 ft 249 kts 301°
2026-05-05 21:10 41.68719 20.50367 17480 ft 250 kts 301°
2026-05-05 21:10 41.69647 20.48391 17476 ft 250 kts 301°
2026-05-05 21:10 41.70578 20.46421 17471 ft 250 kts 301°
2026-05-05 21:10 41.71510 20.44450 17477 ft 250 kts 301°
2026-05-05 21:11 41.72441 20.42478 17479 ft 251 kts 301°
2026-05-05 21:11 41.73355 20.40522 17476 ft 251 kts 301°
2026-05-05 21:11 41.74287 20.38542 17477 ft 251 kts 301°
2026-05-05 21:11 41.75219 20.36566 17479 ft 251 kts 301°
2026-05-05 21:12 41.76148 20.34586 17479 ft 251 kts 301°
2026-05-05 21:12 41.77077 20.32602 17481 ft 251 kts 301°
2026-05-05 21:12 41.78009 20.30620 17471 ft 251 kts 301°
2026-05-05 21:12 41.78937 20.28641 17479 ft 250 kts 301°
2026-05-05 21:13 41.79846 20.26683 17471 ft 250 kts 301°
2026-05-05 21:13 41.80771 20.24710 17478 ft 250 kts 301°
2026-05-05 21:13 41.81701 20.22736 17483 ft 250 kts 301°
2026-05-05 21:13 41.82480 20.21067 17484 ft 250 kts 301°
2026-05-05 21:14 41.83403 20.19087 17487 ft 250 kts 301°
2026-05-05 21:14 41.84327 20.17104 17477 ft 250 kts 301°
2026-05-05 21:14 41.85253 20.15125 17451 ft 251 kts 301°
2026-05-05 21:14 41.86162 20.13131 17095 ft 240 kts 300°
2026-05-05 21:15 41.86986 20.11298 16775 ft 223 kts 299°
2026-05-05 21:15 41.87771 20.09524 16470 ft 224 kts 299°
2026-05-05 21:15 41.88574 20.07728 16158 ft 224 kts 300°
2026-05-05 21:15 41.89379 20.05935 15856 ft 224 kts 300°
2026-05-05 21:16 41.90180 20.04143 15552 ft 223 kts 299°
2026-05-05 21:16 41.90981 20.02349 15260 ft 223 kts 299°
2026-05-05 21:16 41.91780 20.00557 14967 ft 223 kts 300°
2026-05-05 21:16 41.92581 19.98766 14676 ft 223 kts 299°
2026-05-05 21:17 41.93367 19.97005 14384 ft 223 kts 299°
2026-05-05 21:17 41.94165 19.95219 14092 ft 222 kts 299°
2026-05-05 21:17 41.94959 19.93435 13792 ft 222 kts 299°
2026-05-05 21:17 41.95751 19.91656 13482 ft 222 kts 299°
2026-05-05 21:18 41.96544 19.89881 13174 ft 222 kts 299°
2026-05-05 21:18 41.97336 19.88099 12865 ft 221 kts 299°
2026-05-05 21:18 41.98127 19.86322 12559 ft 220 kts 299°
2026-05-05 21:18 41.98912 19.84554 12247 ft 220 kts 299°
2026-05-05 21:19 41.99693 19.82795 11945 ft 219 kts 298°
2026-05-05 21:19 42.00462 19.81062 11658 ft 218 kts 298°
2026-05-05 21:19 42.01239 19.79312 11348 ft 217 kts 298°
2026-05-05 21:19 42.02011 19.77570 11072 ft 216 kts 298°
2026-05-05 21:20 42.02778 19.75840 10778 ft 212 kts 298°
2026-05-05 21:20 42.03534 19.74133 10503 ft 212 kts 298°
2026-05-05 21:20 42.04289 19.72425 10234 ft 212 kts 298°
2026-05-05 21:20 42.05042 19.70717 9932 ft 212 kts 297°
2026-05-05 21:21 42.05796 19.69012 9630 ft 211 kts 297°
2026-05-05 21:21 42.06544 19.67314 9337 ft 211 kts 297°
2026-05-05 21:21 42.07286 19.65644 9052 ft 211 kts 297°
2026-05-05 21:21 42.08034 19.63947 8754 ft 211 kts 297°
2026-05-05 21:22 42.08784 19.62247 8458 ft 211 kts 298°
2026-05-05 21:22 42.09530 19.60558 8165 ft 205 kts 298°
2026-05-05 21:22 42.10233 19.58962 7893 ft 192 kts 298°
2026-05-05 21:22 42.10892 19.57463 7642 ft 186 kts 297°
2026-05-05 21:23 42.11555 19.55947 7386 ft 189 kts 298°
2026-05-05 21:23 42.12219 19.54438 7135 ft 187 kts 298°
2026-05-05 21:23 42.12890 19.52914 6888 ft 190 kts 298°
2026-05-05 21:23 42.13555 19.51407 6645 ft 191 kts 298°
2026-05-05 21:24 42.14235 19.49860 6385 ft 191 kts 298°
2026-05-05 21:24 42.14917 19.48302 6111 ft 193 kts 298°
2026-05-05 21:24 42.15606 19.46728 5851 ft 195 kts 298°
2026-05-05 21:24 42.16284 19.45184 5583 ft 186 kts 299°
2026-05-05 21:25 42.16921 19.43736 5330 ft 177 kts 299°
2026-05-05 21:25 42.17534 19.42341 5113 ft 169 kts 299°
2026-05-05 21:25 42.18135 19.40969 4883 ft 169 kts 299°
2026-05-05 21:25 42.18734 19.39595 4644 ft 169 kts 298°
2026-05-05 21:26 42.19324 19.38244 4407 ft 170 kts 298°
2026-05-05 21:26 42.19926 19.36869 4176 ft 170 kts 299°
2026-05-05 21:26 42.20526 19.35496 3934 ft 170 kts 299°
2026-05-05 21:26 42.21127 19.34124 3711 ft 170 kts 299°
2026-05-05 21:27 42.21723 19.32749 3481 ft 170 kts 299°
2026-05-05 21:27 42.22317 19.31389 3242 ft 170 kts 299°
2026-05-05 21:27 42.22909 19.30034 3012 ft 165 kts 299°
2026-05-05 21:27 42.23479 19.28730 2788 ft 158 kts 299°
2026-05-05 21:28 42.24018 19.27498 2562 ft 146 kts 300°
2026-05-05 21:28 42.24597 19.26506 2419 ft 125 kts 315°
2026-05-05 21:28 42.25289 19.25726 2124 ft 133 kts 328°
2026-05-05 21:28 42.26122 19.25222 1856 ft 130 kts 343°
2026-05-05 21:29 42.26993 19.24944 1646 ft 128 kts 350°
2026-05-05 21:29 42.27862 19.24761 1484 ft 126 kts 354°
2026-05-05 21:29 42.28713 19.24640 1372 ft 121 kts 356°
2026-05-05 21:29 42.29561 19.24596 1252 ft 119 kts
2026-05-05 21:30 42.30407 19.24629 1158 ft 121 kts
2026-05-05 21:30 42.31247 19.24698 964 ft 117 kts
2026-05-05 21:30 42.32030 19.24809 780 ft 113 kts
2026-05-05 21:30 42.32826 19.24890 602 ft 113 kts
2026-05-05 21:31 42.33620 19.24948 414 ft 117 kts
2026-05-05 21:31 42.34423 19.25021 224 ft 114 kts
2026-05-05 21:31 42.35220 19.25107 109 ft 113 kts
2026-05-05 21:31 42.35733 19.25163 104 ft 17 kts
2026-05-05 21:32 42.35845 19.25177 106 ft 15 kts
2026-05-05 21:32 42.35933 19.25157 108 ft 11 kts 309°
2026-05-05 21:32 42.35944 19.25076 109 ft 8 kts 275°
2026-05-05 21:32 42.35949 19.25001 109 ft 8 kts 273°
2026-05-05 21:33 42.35972 19.24948 109 ft 4 kts 345°
2026-05-05 21:33 42.36004 19.24950 110 ft 12 kts
2026-05-05 21:33 42.36092 19.24957 112 ft 12 kts
2026-05-05 21:33 42.36170 19.24965 113 ft 11 kts
2026-05-05 21:34 42.36241 19.24973 114 ft 10 kts
2026-05-05 21:34 42.36313 19.24981 113 ft 10 kts
2026-05-05 21:34 42.36383 19.24988 116 ft 11 kts
2026-05-05 21:34 42.36469 19.24996 118 ft 12 kts
2026-05-05 21:35 42.36532 19.25004 119 ft 7 kts
2026-05-05 21:35 42.36590 19.25009 118 ft 8 kts
2026-05-05 21:35 42.36629 19.24942 119 ft 14 kts 274°
2026-05-05 21:35 42.36649 19.24843 118 ft 8 kts 322°
2026-05-05 21:36 42.36684 19.24789 121 ft 11 kts 271°
2026-05-05 21:36 42.36684 19.24778 119 ft 0 kts 271°